GW6607 Weather Reports


time (UTC)temp
C
wind
direction
speed
KPH
gust
KPH
rain 1hr
cm
rain 24hr
cm
rain mn
cm
humidity
%
barometer
mb
20260508020012 11 315 0.0 6.4 0.00 0.05 0.03 42 1007.3
20260508015504 11 314 1.6 6.4 0.00 0.05 0.03 43 1007.1
20260508015003 11 322 0.0 3.2 0.00 0.05 0.03 44 1007.0
20260508014503 11 323 0.0 3.2 0.00 0.05 0.03 44 1006.9
20260508014003 11 323 0.0 0.0 0.00 0.05 0.03 44 1007.0
20260508013504 11 314 0.0 0.0 0.00 0.05 0.03 43 1006.9
20260508013006 11 320 0.0 3.2 0.00 0.05 0.03 44 1006.8
20260508012505 11 321 0.0 3.2 0.00 0.05 0.03 43 1006.8
20260508012004 11 325 0.0 0.0 0.00 0.08 0.03 42 1006.7
20260508011508 12 313 0.0 0.0 0.00 0.08 0.03 42 1006.6
20260508011004 12 318 0.0 3.2 0.00 0.08 0.03 42 1006.6
20260508010503 12 333 0.0 3.2 0.00 0.08 0.03 42 1006.6
20260508010007 12 313 0.0 3.2 0.00 0.08 0.03 43 1006.6
20260508005513 12 321 0.0 3.2 0.00 0.08 0.03 43 1006.5
20260508005002 12 329 0.0 1.6 0.00 0.08 0.03 39 1006.4
20260508004509 12 276 0.0 1.6 0.00 0.08 0.03 39 1006.2
20260508004008 12 311 0.0 0.0 0.00 0.08 0.03 39 1006.1
20260508003502 12 282 0.0 0.0 0.00 0.08 0.03 38 1006.0
20260508003004 12 312 0.0 3.2 0.00 0.08 0.03 38 1006.0
20260508002503 13 263 0.0 6.4 0.00 0.08 0.03 38 1005.8
20260508002005 13 243 1.6 6.4 0.00 0.08 0.03 37 1005.7
20260508001508 13 284 0.0 3.2 0.00 0.08 0.03 37 1005.7
20260508001003 13 250 0.0 3.2 0.00 0.08 0.03 36 1005.7
20260508000502 13 243 0.0 4.8 0.00 0.08 0.03 36 1005.7
20260508000008 13 336 0.0 4.8 0.00 0.08 0.03 35 1005.7
20260507235503 13 302 0.0 4.8 0.00 0.08 0.03 35 1005.6
20260507235005 13 316 0.0 3.2 0.00 0.08 0.03 35 1005.6
20260507234517 13 308 0.0 3.2 0.00 0.08 0.03 35 1005.6
20260507234002 14 257 0.0 6.4 0.00 0.08 0.03 35 1005.6
20260507233503 14 340 1.6 6.4 0.00 0.08 0.03 34 1005.6
20260507233012 14 313 1.6 9.7 0.00 0.08 0.03 34 1005.6
20260507232507 14 293 3.2 9.7 0.00 0.08 0.03 33 1005.6
20260507232003 15 284 3.2 14.5 0.00 0.08 0.03 33 1005.5
20260507231506 15 342 4.8 14.5 0.00 0.08 0.03 33 1005.5
20260507231003 15 287 3.2 11.3 0.00 0.08 0.03 34 1005.5
20260507230502 15 311 3.2 11.3 0.00 0.08 0.03 33 1005.3
20260507230009 15 295 6.4 11.3 0.00 0.08 0.03 33 1005.3
20260507225504 15 309 3.2 9.7 0.00 0.08 0.03 34 1005.3
20260507225008 15 303 4.8 12.9 0.00 0.08 0.03 33 1005.2
20260507224517 15 199 4.8 12.9 0.00 0.08 0.03 33 1005.0
20260507224005 15 340 4.8 12.9 0.00 0.08 0.03 33 1005.0
20260507223504 15 336 4.8 19.3 0.00 0.08 0.03 33 1004.9
20260507223013 15 287 6.4 19.3 0.00 0.08 0.03 33 1004.9
20260507222503 15 286 3.2 20.9 0.00 0.10 0.03 33 1004.9
20260507222007 15 325 11.3 20.9 0.00 0.10 0.03 33 1004.8
20260507221516 15 301 3.2 12.9 0.00 0.10 0.03 33 1004.6
20260507221001 15 243 4.8 20.9 0.00 0.10 0.03 33 1004.7
20260507220504 15 299 3.2 20.9 0.00 0.10 0.03 33 1004.6
20260507220009 15 296 6.4 17.7 0.00 0.10 0.03 32 1004.7
20260507215503 16 334 6.4 25.7 0.00 0.13 0.03 31 1004.7
20260507215003 16 259 8.0 25.7 0.00 0.13 0.03 31 1004.7
20260507214512 16 321 14.5 22.5 0.00 0.15 0.03 30 1004.6
20260507214006 17 259 6.4 19.3 0.00 0.18 0.03 31 1004.6
20260507213505 16 277 6.4 22.5 0.00 0.20 0.03 30 1004.6
20260507213022 17 290 8.0 27.4 0.00 0.23 0.03 30 1004.6
20260507212506 17 239 8.0 27.4 0.00 0.25 0.03 30 1004.6
20260507212004 17 218 6.4 22.5 0.00 0.25 0.03 29 1004.7
20260507211514 17 342 6.4 17.7 0.00 0.28 0.03 30 1004.6
20260507211003 17 240 6.4 24.1 0.00 0.30 0.03 30 1004.5
20260507210505 17 337 8.0 24.1 0.00 0.30 0.03 30 1004.5
20260507210015 18 301 4.8 16.1 0.00 0.33 0.03 31 1004.5
20260507205502 17 314 3.2 16.1 0.00 0.36 0.03 31 1004.4
20260507205007 17 256 4.8 16.1 0.00 0.38 0.03 30 1004.3
20260507204510 17 171 4.8 14.5 0.00 0.41 0.03 31 1004.4
20260507204003 17 329 6.4 19.3 0.00 0.41 0.03 31 1004.3
20260507203505 17 334 4.8 20.9 0.00 0.43 0.03 33 1004.3
20260507203017 17 294 4.8 20.9 0.00 0.43 0.03 33 1004.4
20260507202507 17 311 3.2 16.1 0.00 0.43 0.03 34 1004.4
20260507202008 17 323 6.4 17.7 0.00 0.43 0.03 32 1004.4
20260507201521 17 333 6.4 22.5 0.00 0.46 0.03 33 1004.4
20260507201009 17 297 8.0 22.5 0.00 0.46 0.03 34 1004.4
20260507200508 17 249 8.0 17.7 0.00 0.46 0.03 33 1004.4
20260507200030 17 303 6.4 17.7 0.00 0.46 0.03 31 1004.4
20260507195507 17 288 3.2 19.3 0.00 0.46 0.03 33 1004.5
20260507195007 17 334 8.0 19.3 0.00 0.48 0.03 32 1004.5
20260507194507 17 302 6.4 20.9 0.00 0.48 0.03 33 1004.5
20260507194007 17 301 6.4 20.9 0.00 0.48 0.03 34 1004.5
20260507193506 17 306 6.4 17.7 0.00 0.51 0.03 33 1004.6
20260507193012 17 288 1.6 17.7 0.00 0.51 0.03 32 1004.5
20260507192508 17 274 4.8 17.7 0.00 0.53 0.03 31 1004.5
20260507192008 18 248 4.8 17.7 0.00 0.56 0.03 31 1004.6
20260507191516 18 294 4.8 17.7 0.00 0.56 0.03 32 1004.6
20260507191007 17 313 6.4 22.5 0.00 0.58 0.03 32 1004.6
20260507190508 17 327 6.4 22.5 0.00 0.58 0.03 32 1004.6
20260507190033 17 309 9.7 19.3 0.00 0.58 0.03 32 1004.6
20260507185508 17 338 4.8 16.1 0.00 0.58 0.03 34 1004.7
20260507185007 17 310 8.0 16.1 0.00 0.58 0.03 34 1004.7
20260507184526 17 204 3.2 16.1 0.00 0.58 0.03 36 1004.7
20260507184007 17 322 6.4 16.1 0.00 0.58 0.03 36 1004.7
20260507183506 17 279 4.8 12.9 0.00 0.58 0.03 38 1004.8
20260507183016 17 263 6.4 20.9 0.00 0.58 0.03 39 1004.9
20260507182507 16 232 8.0 25.7 0.00 0.58 0.03 40 1005.0
20260507182011 16 234 11.3 20.9 0.00 0.58 0.03 39 1004.8
20260507181517 17 330 8.0 19.3 0.00 0.58 0.03 38 1004.9
20260507181007 17 229 4.8 14.5 0.00 0.58 0.03 40 1005.0
20260507180508 17 321 6.4 17.7 0.00 0.58 0.03 40 1004.9
20260507180020 17 334 6.4 22.5 0.00 0.58 0.03 39 1005.1
20260507175507 17 271 8.0 22.5 0.00 0.58 0.03 40 1005.1
20260507175008 17 260 6.4 20.9 0.00 0.58 0.03 41 1005.1
20260507174528 17 203 6.4 19.3 0.00 0.58 0.03 39 1005.2
20260507174009 17 342 6.4 25.7 0.00 0.58 0.03 42 1005.1
20260507173510 17 300 6.4 25.7 0.00 0.58 0.03 43 1005.1
20260507173013 17 321 8.0 22.5 0.00 0.58 0.03 40 1005.3
20260507172506 17 243 9.7 22.5 0.00 0.58 0.03 38 1005.2
20260507172003 17 317 6.4 20.9 0.00 0.58 0.03 42 1005.2
20260507171513 17 245 6.4 20.9 0.00 0.58 0.03 42 1005.3
20260507171007 17 328 6.4 17.7 0.00 0.58 0.03 41 1005.3
20260507170508 17 330 6.4 17.7 0.00 0.58 0.03 42 1005.3
20260507170020 17 247 4.8 20.9 0.00 0.58 0.03 46 1005.4
20260507165508 17 313 9.7 20.9 0.00 0.58 0.03 42 1005.4
20260507165008 17 305 8.0 17.7 0.00 0.58 0.03 45 1005.4
20260507164523 16 263 4.8 17.7 0.00 0.58 0.03 47 1005.4
20260507164014 16 309 8.0 19.3 0.00 0.58 0.03 48 1005.4
20260507163509 16 287 6.4 19.3 0.00 0.58 0.03 48 1005.6
20260507163003 16 311 6.4 22.5 0.00 0.58 0.03 48 1005.5
20260507162506 16 326 8.0 19.3 0.00 0.58 0.03 45 1005.5
20260507162006 17 273 8.0 19.3 0.00 0.58 0.03 45 1005.5
20260507161511 16 214 4.8 19.3 0.00 0.58 0.03 47 1005.6
20260507161003 16 294 8.0 19.3 0.00 0.58 0.03 45 1005.7
20260507160506 16 323 6.4 19.3 0.00 0.58 0.03 48 1005.8
20260507160014 15 333 6.4 17.7 0.00 0.58 0.03 53 1005.9
20260507155506 13 291 1.6 16.1 0.00 0.58 0.03 67 1005.9
20260507155007 13 170 6.4 17.7 0.00 0.58 0.03 74 1005.9
20260507154522 12 165 11.3 22.5 0.00 0.58 0.03 74 1006.0
20260507154012 11 167 6.4 22.5 0.00 0.58 0.03 75 1006.1
20260507153508 11 145 11.3 19.3 0.00 0.58 0.03 75 1006.0
20260507153023 11 189 14.5 19.3 0.00 0.58 0.03 75 1006.3
20260507152508 11 193 11.3 19.3 0.00 0.58 0.03 76 1006.3
20260507152004 12 158 14.5 19.3 0.00 0.58 0.03 74 1006.2
20260507151508 12 173 12.9 19.3 0.00 0.58 0.03 76 1006.2
20260507151006 12 173 14.5 19.3 0.00 0.58 0.03 75 1006.3
20260507150506 12 155 12.9 19.3 0.00 0.58 0.03 76 1006.3
20260507150013 12 180 12.9 19.3 0.00 0.58 0.03 75 1006.3
20260507145507 12 173 12.9 19.3 0.00 0.58 0.03 76 1006.2
20260507145006 12 166 9.7 16.1 0.00 0.58 0.03 76 1006.2
20260507144520 12 149 9.7 16.1 0.00 0.58 0.03 75 1006.3
20260507144008 12 170 11.3 16.1 0.00 0.58 0.03 74 1006.3
20260507143511 13 202 9.7 16.1 0.00 0.58 0.03 72 1006.4
20260507143023 13 180 11.3 16.1 0.00 0.58 0.03 70 1006.3
20260507142509 15 166 8.0 14.5 0.00 0.58 0.03 58 1006.4
20260507142009 15 51 3.2 6.4 0.00 0.58 0.03 58 1006.3
20260507141526 15 23 3.2 6.4 0.00 0.58 0.03 59 1006.5
20260507141009 15 179 3.2 6.4 0.00 0.58 0.03 59 1006.5
20260507140505 15 314 0.0 12.9 0.00 0.58 0.03 63 1006.6
20260507140009 14 286 4.8 12.9 0.00 0.58 0.03 65 1006.6
20260507135506 13 205 1.6 11.3 0.00 0.58 0.03 65 1006.7
20260507135004 13 256 3.2 9.7 0.00 0.58 0.03 63 1006.7
20260507134520 13 303 3.2 12.9 0.00 0.58 0.03 65 1006.7
20260507134012 13 237 1.6 12.9 0.00 0.58 0.03 68 1006.7
20260507133507 13 294 1.6 8.0 0.00 0.58 0.03 70 1006.7
20260507133018 13 338 1.6 11.3 0.00 0.58 0.03 72 1006.9
20260507132506 13 249 4.8 11.3 0.00 0.58 0.03 72 1006.9
20260507132010 13 248 3.2 11.3 0.00 0.58 0.03 70 1007.0
20260507131524 13 260 3.2 9.7 0.00 0.58 0.03 70 1007.0
20260507131012 13 316 1.6 6.4 0.00 0.58 0.03 72 1007.0
20260507130510 13 328 3.2 9.7 0.00 0.58 0.03 72 1007.0
20260507130023 12 315 4.8 9.7 0.00 0.58 0.03 73 1007.1
20260507125508 12 236 3.2 6.4 0.00 0.58 0.03 76 1007.1
20260507125007 12 308 1.6 6.4 0.00 0.58 0.03 76 1007.0
20260507124511 12 334 3.2 6.4 0.00 0.58 0.03 78 1007.1
20260507124007 12 324 3.2 9.7 0.00 0.58 0.03 79 1007.1
20260507123507 12 224 3.2 9.7 0.00 0.58 0.03 79 1007.1
20260507123016 12 320 1.6 6.4 0.00 0.58 0.03 81 1007.1
20260507122507 11 355 0.0 8.0 0.00 0.58 0.03 84 1007.2
20260507122008 11 330 1.6 8.0 0.00 0.58 0.03 84 1007.0
20260507121520 11 336 3.2 8.0 0.00 0.58 0.03 84 1007.0
20260507121008 11 321 3.2 8.0 0.00 0.58 0.03 85 1007.0
20260507120507 11 264 1.6 6.4 0.00 0.58 0.03 86 1007.0
20260507120025 10 312 1.6 4.8 0.00 0.58 0.03 87 1007.0
20260507115510 10 287 1.6 4.8 0.00 0.58 0.03 87 1007.0
20260507115010 10 326 0.0 4.8 0.00 0.58 0.03 88 1007.0
20260507114525 9 282 0.0 4.8 0.00 0.58 0.03 88 1007.1
20260507114006 9 316 0.0 3.2 0.00 0.58 0.03 88 1006.9
20260507113505 9 315 1.6 6.4 0.00 0.58 0.03 88 1006.8
20260507113029 8 329 0.0 6.4 0.00 0.58 0.03 88 1006.8
20260507112509 8 326 3.2 6.4 0.00 0.58 0.03 88 1006.9
20260507112010 8 315 0.0 4.8 0.00 0.58 0.03 88 1006.9
20260507111524 8 320 1.6 4.8 0.00 0.58 0.03 88 1006.9
20260507111007 8 318 0.0 3.2 0.00 0.58 0.03 89 1007.2
20260507110512 8 314 0.0 0.0 0.00 0.58 0.03 89 1007.0
20260507110028 8 314 0.0 0.0 0.00 0.58 0.03 89 1007.1
20260507105508 8 314 0.0 0.0 0.00 0.58 0.03 89 1007.2
20260507105008 8 314 0.0 0.0 0.00 0.58 0.03 89 1007.3
20260507104524 8 314 0.0 0.0 0.00 0.58 0.03 89 1006.9
20260507104015 8 309 0.0 0.0 0.00 0.58 0.03 89 1006.9
20260507103508 8 309 0.0 0.0 0.00 0.58 0.03 89 1007.1
20260507103025 8 309 0.0 0.0 0.00 0.58 0.03 89 1007.7
20260507102510 8 309 0.0 0.0 0.00 0.58 0.03 89 1007.4
20260507102007 8 309 0.0 0.0 0.00 0.58 0.03 89 1007.2
20260507101526 8 309 0.0 3.2 0.00 0.58 0.03 89 1007.2
20260507101007 8 309 0.0 3.2 0.00 0.58 0.03 89 1007.2
20260507100507 8 309 0.0 3.2 0.00 0.58 0.03 89 1007.0
20260507100031 8 288 0.0 3.2 0.00 0.58 0.03 89 1007.0
20260507095509 8 301 0.0 3.2 0.00 0.58 0.03 89 1007.1
20260507095008 8 296 0.0 3.2 0.00 0.58 0.03 89 1007.0
20260507094526 8 269 0.0 4.8 0.00 0.58 0.03 89 1007.2
20260507094006 8 275 0.0 4.8 0.00 0.58 0.03 89 1007.0
20260507093510 8 310 1.6 4.8 0.00 0.58 0.03 89 1006.1
20260507093036 8 320 1.6 4.8 0.00 0.58 0.03 90 1006.5
20260507092512 8 332 0.0 3.2 0.00 0.58 0.03 90 1006.8
20260507092011 8 305 0.0 6.4 0.00 0.58 0.03 90 1006.6
20260507091526 8 303 0.0 8.0 0.00 0.58 0.03 90 1006.5
20260507091008 8 317 1.6 8.0 0.00 0.58 0.03 90 1006.2
20260507090506 8 315 1.6 8.0 0.00 0.58 0.03 90 1006.2
20260507090031 8 313 3.2 9.7 0.00 0.58 0.03 90 1006.4
20260507085507 9 328 3.2 9.7 0.00 0.58 0.03 90 1006.2
20260507085009 9 318 1.6 8.0 0.00 0.58 0.03 90 1006.2
20260507084522 10 311 0.0 8.0 0.00 0.58 0.03 90 1006.2
20260507084013 10 9 0.0 3.2 0.00 0.58 0.03 91 1006.2
20260507083510 10 294 0.0 3.2 0.00 0.58 0.03 92 1006.4
20260507083010 10 314 0.0 3.2 0.00 0.58 0.03 92 1006.7
20260507082503 10 307 0.0 3.2 0.00 0.58 0.03 92 1006.6
20260507082007 10 315 0.0 0.0 0.00 0.58 0.03 92 1006.5
20260507081512 10 330 0.0 0.0 0.00 0.58 0.03 91 1006.2
20260507081005 10 330 0.0 0.0 0.00 0.58 0.03 91 1006.1
20260507080507 10 330 0.0 0.0 0.00 0.58 0.03 91 1006.1
20260507080016 10 330 0.0 0.0 0.00 0.58 0.03 91 1006.1
20260507075506 10 330 0.0 0.0 0.00 0.58 0.03 91 1005.9
20260507075011 10 328 0.0 3.2 0.00 0.58 0.03 92 1005.8
20260507074527 10 355 0.0 3.2 0.00 0.58 0.03 92 1005.9
20260507074003 10 251 0.0 0.0 0.00 0.58 0.03 91 1006.1
20260507073503 10 251 0.0 0.0 0.00 0.58 0.03 91 1006.3
20260507073006 10 251 0.0 0.0 0.00 0.58 0.03 91 1006.1
20260507072504 10 340 0.0 0.0 0.00 0.58 0.03 91 1006.1
20260507072006 10 340 0.0 0.0 0.00 0.58 0.03 91 1006.0
20260507071510 10 340 0.0 0.0 0.00 0.58 0.03 92 1005.8
20260507071008 10 340 0.0 0.0 0.00 0.58 0.03 92 1005.6
20260507070508 10 338 0.0 0.0 0.00 0.58 0.03 92 1005.6
20260507070016 10 338 0.0 0.0 0.00 0.58 0.03 91 1005.7
20260507065512 10 338 0.0 3.2 0.00 0.58 0.03 91 1005.6
20260507065008 10 9 0.0 3.2 0.00 0.58 0.03 91 1005.5
20260507064520 10 355 0.0 3.2 0.00 0.58 0.03 91 1005.5
20260507064007 10 14 0.0 3.2 0.00 0.58 0.03 92 1005.8
20260507063508 10 15 0.0 3.2 0.00 0.58 0.03 91 1005.7
20260507063024 11 340 0.0 3.2 0.00 0.58 0.03 92 1005.7
20260507062504 11 350 0.0 3.2 0.00 0.58 0.03 92 1005.7
20260507062002 11 342 0.0 3.2 0.00 0.58 0.03 92 1005.5
20260507061506 11 312 0.0 6.4 0.00 0.58 0.03 92 1005.3
20260507061005 11 308 1.6 6.4 0.00 0.58 0.03 92 1005.5
20260507060504 11 314 0.0 3.2 0.00 0.58 0.03 92 1005.4
20260507060012 11 330 0.0 3.2 0.00 0.58 0.03 92 1005.5
20260507055504 11 313 0.0 4.8 0.00 0.58 0.03 92 1005.5
20260507055008 11 330 3.2 8.0 0.00 0.58 0.03 92 1005.5
20260507054518 11 319 3.2 8.0 0.00 0.58 0.03 92 1005.3
20260507054010 11 317 3.2 8.0 0.00 0.58 0.03 92 1005.2
20260507053509 11 298 1.6 6.4 0.00 0.58 0.03 92 1005.0
20260507053020 11 270 1.6 6.4 0.00 0.58 0.03 92 1005.2
20260507052510 11 309 1.6 4.8 0.00 0.58 0.03 92 1005.2
20260507052009 11 269 0.0 6.4 0.00 0.58 0.03 92 1005.0
20260507051524 11 322 1.6 6.4 0.03 0.58 0.03 92 1004.9
20260507051010 11 320 1.6 9.7 0.03 0.58 0.03 92 1004.9
20260507050504 11 324 3.2 9.7 0.03 0.58 0.03 92 1004.8
20260507050011 11 318 1.6 8.0 0.03 0.58 0.03 92 1005.2
20260507045506 12 249 1.6 11.3 0.03 0.58 0.03 92 1005.2
20260507045004 12 320 1.6 11.3 0.03 0.58 0.03 93 1005.3
20260507044515 12 230 1.6 6.4 0.03 0.58 0.03 93 1005.0
20260507044008 12 312 1.6 6.4 0.03 0.58 0.03 93 1004.5
20260507043507 12 279 3.2 8.0 0.03 0.58 0.03 93 1004.5
20260507043027 12 317 3.2 11.3 0.03 0.58 0.03 93 1004.4
20260507042510 12 288 3.2 14.5 0.05 0.58 0.03 93 1004.3
20260507042009 12 257 3.2 14.5 0.05 0.58 0.03 93 1004.4
20260507041524 12 286 3.2 12.9 0.03 0.56 0.00 93 1004.3
20260507041009 12 255 4.8 11.3 0.03 0.56 0.00 93 1004.3
20260507040510 12 314 3.2 12.9 0.03 0.56 0.00 93 1004.2
20260507040025 12 319 4.8 12.9 0.03 0.56 0.00 94 1004.6
20260507035504 12 303 1.6 4.8 0.03 0.56 0.56 94 1004.7
20260507035003 12 203 1.6 4.8 0.03 0.56 0.56 93 1004.7
20260507034518 12 205 0.0 3.2 0.03 0.56 0.56 95 1004.6
20260507034005 12 215 0.0 3.2 0.03 0.56 0.56 95 1004.7
20260507033510 12 252 1.6 4.8 0.03 0.56 0.56 95 1004.6
20260507033017 11 257 1.6 4.8 0.03 0.56 0.56 95 1004.4
20260507032511 10 306 0.0 3.2 0.00 0.53 0.53 95 1004.4
20260507032013 10 285 0.0 3.2 0.00 0.53 0.53 94 1004.3
20260507031521 9 200 0.0 0.0 0.00 0.53 0.53 92 1004.1
20260507031011 9 200 0.0 0.0 0.00 0.53 0.53 92 1004.0
20260507030512 9 211 0.0 0.0 0.00 0.53 0.53 92 1004.0
20260507030024 10 198 0.0 3.2 0.00 0.53 0.53 92 1004.0
20260507025507 10 182 0.0 3.2 0.00 0.53 0.53 91 1004.1
20260507025009 10 202 0.0 6.4 0.00 0.53 0.53 92 1004.1
20260507024528 11 202 1.6 6.4 0.00 0.53 0.53 92 1004.2
20260507024008 11 228 3.2 6.4 0.00 0.53 0.53 93 1004.3
20260507023504 11 183 3.2 6.4 0.00 0.53 0.53 93 1004.3
20260507023014 11 211 3.2 8.0 0.00 0.53 0.53 93 1004.3
20260507022506 11 215 3.2 14.5 0.00 0.53 0.53 93 1004.4
20260507022009 11 210 4.8 14.5 0.03 0.53 0.53 93 1004.4
20260507021519 11 224 6.4 12.9 0.03 0.53 0.53 94 1004.4
20260507021015 11 238 3.2 16.1 0.03 0.53 0.53 94 1004.6
20260507020510 10 205 6.4 16.1 0.03 0.53 0.53 94 1004.7